Content
SEND FEEDBACK

Daily
Averages
Monthly
Summary
United States of America

PUKWANA, SOUTH DAKOTA


Home > North America > United States > South Dakota
Elevation: 1540 feet     Latitude: 43 47N     Longitude: 099 11W

WEATHER
 
SELECT A DAY
Number of Records: 178,384;   Date Range: 1/1/95 - 7/23/14
 
SHARE

PRINT THIS DATA

[ ← Previous Day ]
WEATHER ALMANAC - DECEMBER 25, 2013
[ Next Day → ]
[ °C ]   °F
Weather ElementAverageHighLow
Temperature30.1 °F35.1 °F (12:52 pm)21.9 °F (10:52 pm)
Dewpoint22.3 °F26.1 °F (1:52 am)17.1 °F (10:52 pm)
Humidity73.1 %82 % (2:52 am)61 % (1:52 pm)
Barometer30.24 in30.35 in (10:52 am)30.14 in (11:52 pm)
Wind Speed12.5 mph23 mph (5:52 am)
Wind Gust31.1 mph (5:52 am)
Weather ElementAverage
Wind DirectionWNW (283.9 °)

Weather ElementTotal
Precipitation0.01 in
Heating Degree Days36.5 (Base 65)
Averaged from 23 records on December 25, 2013
WEATHER CONDITIONS BREAKOUT
WIND DIRECTION BREAKOUT
WEATHER BY HOUR - DECEMBER 25, 2013
[ °C ]   °F
Local TimeTemperatureDewpointHumidityBarometerVisibilityWind DirectionWind SpeedGust SpeedPrecipitationEventsConditions
1:52 AM32.0 °F26.1 °F79 %30.15 inWest (270°)19.6 mph26.5 mph
2:52 AM28.9 °F24.1 °F82 %30.16 inWest (260°)12.7 mph
3:52 AM28.9 °F21.9 °F75 %30.16 inWest (270°)10.4 mph0.01 in
4:52 AM33.1 °F23.0 °F66 %30.16 inWNW (300°)17.3 mph
5:52 AM34.0 °F24.1 °F67 %30.18 inNW (320°)23.0 mph31.1 mph
6:52 AM32.0 °F25.0 °F75 %30.24 inNW (320°)18.4 mph
7:52 AM32.0 °F25.0 °F75 %30.27 inWNW (300°)11.5 mph
8:52 AM30.0 °F23.0 °F75 %30.30 inNW (310°)11.5 mph19.6 mph
9:52 AM32.0 °F24.1 °F73 %30.32 inNW (310°)17.3 mph24.2 mph
10:52 AM34.0 °F24.1 °F67 %30.35 inNW (320°)16.1 mph21.9 mph
11:52 AM34.0 °F24.1 °F67 %30.34 inNW (320°)10.4 mph20.7 mph
12:52 PM35.1 °F24.1 °F64 %30.32 inNW (320°)12.7 mph19.6 mph
1:52 PM35.1 °F23.0 °F61 %30.31 inNW (310°)15.0 mph20.7 mph
2:52 PM34.0 °F23.0 °F64 %30.31 inNW (310°)11.5 mph
3:52 PM34.0 °F23.0 °F64 %30.30 inWNW (300°)6.9 mph
4:52 PM30.0 °F21.9 °F72 %30.27 inWest (280°)13.8 mph
5:52 PM25.0 °F19.0 °F78 %30.26 inWest (260°)11.5 mph
6:52 PM25.0 °F19.9 °F81 %30.24 inWSW (250°)10.4 mph
7:52 PM27.0 °F21.0 °F78 %30.22 inWSW (240°)9.2 mph
8:52 PM26.1 °F19.9 °F78 %30.21 inWSW (240°)9.2 mph
9:52 PM23.0 °F18.0 °F81 %30.18 inWSW (250°)9.2 mph
10:52 PM21.9 °F17.1 °F82 %30.17 inSW (230°)5.8 mph
11:52 PM24.1 °F18.0 °F77 %30.14 inWSW (240°)3.5 mph
Hourly data recorded from K9V9, located miles away from Pukwana, South Dakota







STORIES FROM OUR PARTNERS